Regional Weather Roundup
Issued by NWS State College, PA

Current Version | Previous Version | Text Only | Print | Product List | Glossary On
Versions: 1 2 3 4 5 6 7 8 9 10 11 12 13 14 15 16 17 18 19 20 21 22 23 24 25 26 27 28 29 30 31 32 33 34 35 36 37 38 39 40 41 42 43 44 45 46 47 48 49 50
000
ASUS41 KCTP 041903
RWRCTP

REGIONAL WEATHER ROUNDUP
NATIONAL WEATHER SERVICE STATE COLLEGE PA
200 PM EST WED MAR 04 2015

Note: "fair" indicates few or no clouds below 12,000 feet with no
significant weather and/or obstructions to visibility.

* = STATION THAT DOES NOT REPORT PRECIPITATION /E.G. RAIN...SNOW...ETC/
    THUNDER OR FOG.

PAZ002>004-007>009-013>016-020>023-029>032-042000-
WESTERN PENNSYLVANIA

CITY           SKY/WX    TMP DP  RH WIND       PRES   REMARKS
ERIE           CLOUDY    33  22  63 W9        29.92S
MEADVILLE      CLOUDY    32  23  69 W12       29.89R
FRANKLIN*      CLOUDY    32  27  80 W8        29.90R
NEW CASTLE     CLOUDY    35  29  79 VRB6      29.93R
BEAVER COUNTY  CLOUDY    34  32  93 W6        29.91R
BUTLER*        CLOUDY    34  30  86 W8        29.92F
PITTSBURGH INT LGT SNOW  34  33  96 NW8       29.91S FOG
PITTSBURGH     CLOUDY    35  30  82 VRB3      29.90R
INDIANA*       CLOUDY    34  34 100 W6        29.92R
LATROBE        LGT RAIN  36  36 100 W7        29.92S FOG
WASHINGTON CO* CLOUDY    36  34  93 W3        29.92F
$$

PAZ004>006-010>012-017>019-024>028-033>037-041-042-045-046-049>053-042000-
CENTRAL PENNSYLVANIA

CITY           SKY/WX    TMP DP  RH WIND       PRES   REMARKS
BRADFORD       CLOUDY    32  24  72 W10G18    29.81R
DUBOIS         CLOUDY    33  30  88 W13G21    29.84R
CLEARFIELD     CLOUDY    36  30  79 W13G18    29.87R
JOHNSTOWN      FOG       33  32  96 W12G21    29.84R VSB<1/4
ALTOONA        CLOUDY    39  34  82 NW10      29.86R
STATE COLLEGE  CLOUDY    36  32  87 W9        29.86R
WILLIAMSPORT   CLOUDY    36  32  85 S3        29.85F FOG
SELINSGROVE    CLOUDY    40  35  83 CALM      29.87F
FT INDIANTOWN  CLOUDY    40  38  93 S3        29.85F FOG
CAPITAL CITY   CLOUDY    43  40  89 CALM      29.85F FOG
HARRISBURG     CLOUDY    42  39  89 CALM      29.85F FOG
YORK           CLOUDY    42  39  89 CALM      29.83F
$$

PAZ038>040-043-044-047-048-054-055-060>062-067>071-042000-
EASTERN PENNSYLVANIA

CITY           SKY/WX    TMP DP  RH WIND       PRES   REMARKS
SCRANTON       CLOUDY    39  33  79 SW9       29.80F
MOUNT POCONO   CLOUDY    38  30  73 W16G26    29.76F
ALLENTOWN      LGT RAIN  41  37  86 S6        29.82F FOG
QUAKERTOWN*    CLOUDY    41  39  93 CALM      29.85F
READING        LGT RAIN  39  38  96 CALM      29.84F VSB 1
LANCASTER      LGT RAIN  35  34  96 NE3       29.84F VSB 1
COATESVILLE    LGT RAIN  41  41 100 CALM      29.85F
POTTSTOWN      LGT RAIN  41  41 100 CALM      29.86F FOG
BLUE BELL      CLOUDY    43  41  93 CALM      29.86S
DOYLESTOWN     LGT RAIN  40  40 100 CALM      29.84S FOG
WILLOW GROVE   NOT AVBL
NORTH PHILA    LGT RAIN  46  38  73 W5        29.89S
PHILADELPHIA   CLOUDY    43  40  89 SW3       29.88F FOG
$$


USA.gov is the U.S. government's official web portal to all federal, state and local government web resources and services.